Flag for Brazil Weather past 2 weeks in Belém, Pará, Brazil

Now
88 °F

Partly sunny.


Feels Like: 98 °F
Forecast: 75 / 83 °F
Wind: 14 mph from Southeast

Location: Belem Aeroporto

Current Time: Apr 28, 2015 at 1:14:50 PM

Latest Report: Apr 28, 2015 at 12:00 PM


Visibility: N/A

Pressure: 29.86 "Hg

Humidity: 66%

Dew point: 75 °F

Location of BelémLocation

Historic Weather in Belém — Graph

°F

Belém temperature yesterday

Maximum temperature yesterday: 86 °F (at 12:00 PM)
Minimum temperature yesterday: 73 °F (at 2:00 PM)
Average temperature yesterday: 78 °F

Past Weeks' High & Low Weather Summary

 TemperatureHumidityPressure
High90 °F (Apr 20, 2:00 PM)100% (Apr 14, 11:00 AM)29.98 "Hg (Apr 14, 11:00 AM)
Low72 °F (Apr 19, 5:00 PM)55% (Apr 20, 2:00 PM)29.77 "Hg (Apr 17, 4:00 PM)
Average78 °F89%29.88 "Hg
* Reported Apr 13 12:00 Noon — Apr 28 11:00 AM, Belém, Weather by CustomWeather, © 2015

Note: Actual official high and low records may vary slightly from our data, if they occured in-between our weather recording intervals... More about our weather records

Advertising

Belém weather history for previous 24 hours

 ConditionsComfort  
Time TempWeatherWind HumidityBarometerVisibility
11:00 AM
Tue, Apr 28
86 °FPartly sunny.12 mph70%29.89 "HgN/A
10:00 AM82 °FPartly sunny.10 mph79%29.89 "HgN/A
9:00 AM82 °FPartly sunny.9 mph79%29.89 "HgN/A
8:00 AM79 °FPassing clouds.7 mph89%29.86 "HgN/A
7:00 AM75 °FSunny.3 mph94%29.83 "Hg10 mi
6:00 AM75 °FClear.5 mph94%29.83 "Hg10 mi
5:00 AM75 °FClear.2 mph94%29.80 "Hg10 mi
4:00 AM75 °FClear.3 mph94%29.80 "Hg10 mi
3:00 AM75 °FClear.6 mph94%29.86 "Hg10 mi
2:00 AM75 °FClear.2 mph94%29.83 "Hg10 mi
1:00 AM75 °FClear.3 mph94%29.86 "Hg10 mi
12:00 AM75 °FClear.3 mph94%29.86 "Hg10 mi
11:00 PM
Mon, Apr 27
77 °FClear.7 mph89%29.89 "Hg10 mi
10:00 PM77 °FClear.6 mph89%29.86 "Hg10 mi
9:00 PM77 °FPassing clouds.2 mph94%29.86 "HgN/A
8:00 PM77 °FPassing clouds.3 mph94%29.86 "HgN/A
7:00 PM77 °FPassing clouds.5 mph94%29.83 "HgN/A
6:00 PM79 °FPartly sunny.7 mph89%29.89 "HgN/A
5:00 PM79 °FBroken clouds.9 mph89%29.83 "HgN/A
4:00 PM79 °FBroken clouds.7 mph84%29.80 "HgN/A
3:00 PM75 °FLight rain. Broken clouds.8 mph94%29.83 "Hg4 mi
2:00 PM73 °FThunderstorms. Partly sunny.15 mph94%29.83 "Hg2 mi
1:00 PM86 °FPartly sunny.8 mph75%29.83 "HgN/A
Weather by CustomWeather, © 2015

See weather overviewHow to use our weather pages